{"data":{"norad_id":56128,"intl_designator":"2023-046AN","name":"STARLINK-6122","alt_names":[],"object_type":"PAYLOAD","status":"ACTIVE","operator":null,"country":"US","launch_date":"2023-03-29","launch_site_code":"AFETR","launch_vehicle":null,"mission":null,"orbit_class":"UNKNOWN","rcs_meters":null,"size_class":null,"mass_kg":null,"dimensions":null,"purposes":["comms"],"wikipedia_slug":null,"has_3d_model":false,"image_url":null,"decayed_at":null,"tle_current":{"epoch":"2026-05-25T04:18:15.585120Z","epoch_age_seconds":59654,"freshness":"FRESH","line1":"1 56128U 23046AN  26145.17934705  .00000160  00000+0  15330-4 0  9993","line2":"2 56128  43.0035  75.4110 0000768 262.0043  98.0721 15.27576760173896","mean_motion":15.2757676,"eccentricity":7.68e-5,"inclination_deg":43.0035,"raan_deg":75.411,"arg_perigee_deg":262.0043,"mean_anomaly_deg":98.0721,"bstar":1.533e-5,"rev_number":17389,"period_min":94.266948654024,"perigee_km":482.53185794512,"apogee_km":483.58573761965,"semimajor_km":6861.1957977824,"source":"CELESTRAK","updated_at":"2026-05-25T13:38:17.960043Z"}}}